Time,TemperatureF,DewpointF,PressureIn,WindDirection,WindDirectionDegrees,WindSpeedMPH,WindSpeedGustMPH,Humidity,HourlyPrecipIn,Conditions,Clouds,dailyrainin,SolarRadiationWatts/m^2,SoftwareType,DateUTC
2013-01-20 07:31:00,0.0,0.0,30.21,NNE,22,2.2,2.5,0,-99.99,,---,-99.99,0.00,VWS V14.01,2013-01-20 13:31:00,
2013-01-20 07:32:00,0.0,0.0,30.21,North,0,2.0,2.5,0,-99.99,,---,-99.99,0.00,VWS V14.01,2013-01-20 13:32:00,
2013-01-20 07:37:00,32.4,-1.3,30.21,NNE,22,2.9,3.1,23,-99.99,,---,-99.99,0.00,VWS V14.01,2013-01-20 13:37:00,
2013-01-20 07:42:00,16.2,-15.1,30.21,NNW,338,2.0,3.8,23,-99.99,,---,-99.99,0.00,VWS V14.01,2013-01-20 13:42:00,
2013-01-20 07:47:00,16.0,-15.3,30.21,NNE,22,1.6,2.9,23,-99.99,,---,-99.99,0.00,VWS V14.01,2013-01-20 13:47:00,
2013-01-20 07:52:00,15.8,-14.6,30.21,NNE,22,2.5,2.9,24,-99.99,,---,-99.99,0.00,VWS V14.01,2013-01-20 13:52:00,
2013-01-20 07:58:00,15.8,-14.6,30.21,NNE,22,2.5,2.5,24,-99.99,,---,-99.99,0.00,VWS V14.01,2013-01-20 13:58:00,
2013-01-20 08:04:00,16.0,-15.3,30.21,NNE,22,0.0,0.0,23,-99.99,,---,-99.99,0.00,VWS V14.01,2013-01-20 14:04:00,
2013-01-20 08:09:00,16.0,-15.3,30.21,NNE,22,0.0,0.0,23,-99.99,,---,-99.99,0.00,VWS V14.01,2013-01-20 14:09:00,
2013-01-20 08:15:00,16.2,-15.1,30.21,NNE,22,1.6,3.1,23,-99.99,,---,-99.99,0.00,VWS V14.01,2013-01-20 14:15:00,
2013-01-20 08:21:00,16.2,-15.1,30.24,NNE,22,2.5,2.9,23,-99.99,,---,-99.99,0.00,VWS V14.01,2013-01-20 14:21:00,
2013-01-20 08:27:00,16.3,-15.0,30.24,NE,45,6.0,6.0,23,-99.99,,---,-99.99,0.00,VWS V14.01,2013-01-20 14:27:00,
2013-01-20 08:32:00,16.5,-14.8,30.24,NNE,22,4.7,4.7,23,-99.99,,---,-99.99,0.00,VWS V14.01,2013-01-20 14:32:00,
2013-01-20 08:37:00,16.9,-14.5,30.21,NNE,22,4.3,4.3,23,-99.99,,---,-99.99,0.00,VWS V14.01,2013-01-20 14:37:00,
2013-01-20 08:43:00,17.1,-14.3,30.21,NNE,22,2.0,2.0,23,-99.99,,---,-99.99,0.00,VWS V14.01,2013-01-20 14:43:00,
2013-01-20 08:48:00,17.1,-14.3,30.21,NNE,22,2.9,2.9,23,-99.99,,---,-99.99,0.00,VWS V14.01,2013-01-20 14:48:00,
2013-01-20 08:54:00,17.1,-14.3,30.21,NNE,22,2.9,2.9,23,-99.99,,---,-99.99,0.00,VWS V14.01,2013-01-20 14:54:00,
2013-01-20 08:59:00,17.2,-14.2,30.24,NE,45,2.9,2.9,23,-99.99,,---,-99.99,0.00,VWS V14.01,2013-01-20 14:59:00,
2013-01-20 09:04:00,17.4,-14.0,30.24,NNW,338,3.1,3.1,23,-99.99,,---,-99.99,0.00,VWS V14.01,2013-01-20 15:04:00,
2013-01-20 09:09:00,17.8,-13.7,30.24,NNE,22,3.6,3.6,23,-99.99,,---,-99.99,0.00,VWS V14.01,2013-01-20 15:09:00,
2013-01-20 09:15:00,18.7,-11.3,30.24,NNE,22,4.9,4.9,25,-99.99,,---,-99.99,0.00,VWS V14.01,2013-01-20 15:15:00,
2013-01-20 09:20:00,18.9,-12.8,30.24,NE,45,6.0,6.0,23,-99.99,,---,-99.99,0.00,VWS V14.01,2013-01-20 15:20:00,
2013-01-20 09:26:00,19.2,-12.5,30.24,ENE,68,4.3,4.3,23,-99.99,,---,-99.99,0.00,VWS V14.01,2013-01-20 15:26:00,
2013-01-20 09:32:00,19.6,-13.1,30.24,NNE,22,4.3,4.3,22,-99.99,,---,-99.99,0.00,VWS V14.01,2013-01-20 15:32:00,
2013-01-20 09:38:00,19.8,-12.9,30.27,North,0,4.9,4.9,22,-99.99,,---,-99.99,0.00,VWS V14.01,2013-01-20 15:38:00,
2013-01-20 09:43:00,20.1,-12.6,30.27,NE,45,4.9,4.9,22,-99.99,,---,-99.99,0.00,VWS V14.01,2013-01-20 15:43:00,
2013-01-20 09:48:00,20.1,-12.6,30.27,ENE,68,2.0,2.0,22,-99.99,,---,-99.99,0.00,VWS V14.01,2013-01-20 15:48:00,
2013-01-20 09:54:00,20.1,-12.6,30.27,NE,45,4.3,4.3,22,-99.99,,---,-99.99,0.00,VWS V14.01,2013-01-20 15:54:00,
2013-01-20 09:59:00,21.0,-11.9,30.27,ENE,68,3.4,3.4,22,-99.99,,---,-99.99,0.00,VWS V14.01,2013-01-20 15:59:00,
2013-01-20 10:05:00,21.9,-11.1,30.27,NE,45,1.1,3.4,22,-99.99,,---,-99.99,0.00,VWS V14.01,2013-01-20 16:05:00,
2013-01-20 10:10:00,22.6,-10.5,30.27,NNE,22,3.6,3.6,22,-99.99,,---,-99.99,0.00,VWS V14.01,2013-01-20 16:10:00,
2013-01-20 10:16:00,22.6,-10.5,30.27,NNE,22,7.8,7.8,22,-99.99,,---,-99.99,0.00,VWS V14.01,2013-01-20 16:16:00,
2013-01-20 10:22:00,23.0,-10.2,30.27,NNE,22,5.6,5.6,22,-99.99,,---,-99.99,0.00,VWS V14.01,2013-01-20 16:22:00,
2013-01-20 10:27:00,23.5,-9.7,30.27,NNE,22,4.0,4.0,22,-99.99,,---,-99.99,0.00,VWS V14.01,2013-01-20 16:27:00,
2013-01-20 10:32:00,23.5,-9.7,30.27,North,0,4.0,5.8,22,-99.99,,---,-99.99,0.00,VWS V14.01,2013-01-20 16:32:00,
2013-01-20 10:38:00,23.9,-9.4,30.27,NNE,22,4.9,6.3,22,-99.99,,---,-99.99,0.00,VWS V14.01,2013-01-20 16:38:00,
2013-01-20 10:43:00,24.3,-9.1,30.27,ENE,68,4.9,5.6,22,-99.99,,---,-99.99,0.00,VWS V14.01,2013-01-20 16:43:00,
2013-01-20 10:48:00,24.4,-8.9,30.27,East,90,2.9,4.3,22,-99.99,,---,-99.99,0.00,VWS V14.01,2013-01-20 16:48:00,
2013-01-20 10:53:00,24.6,-8.8,30.27,NNE,22,3.6,3.6,22,-99.99,,---,-99.99,0.00,VWS V14.01,2013-01-20 16:53:00,
2013-01-20 10:58:00,24.6,-8.8,30.27,East,90,3.8,3.8,22,-99.99,,---,-99.99,0.00,VWS V14.01,2013-01-20 16:58:00,
2013-01-20 11:03:00,25.3,-9.1,30.27,ENE,68,6.5,6.5,21,-99.99,,---,-99.99,0.00,VWS V14.01,2013-01-20 17:03:00,
2013-01-20 11:08:00,25.3,-9.1,30.27,ENE,68,4.0,4.9,21,-99.99,,---,-99.99,0.00,VWS V14.01,2013-01-20 17:08:00,
2013-01-20 11:14:00,25.7,-8.8,30.27,ENE,68,5.6,5.6,21,-99.99,,---,-99.99,0.00,VWS V14.01,2013-01-20 17:14:00,
2013-01-20 11:20:00,25.7,-8.8,30.27,NE,45,4.7,5.6,21,-99.99,,---,-99.99,0.00,VWS V14.01,2013-01-20 17:20:00,
2013-01-20 11:27:00,25.9,-8.7,30.27,ENE,68,6.3,7.4,21,-99.99,,---,-99.99,0.00,VWS V14.01,2013-01-20 17:27:00,
2013-01-20 11:33:00,26.8,-7.9,30.27,East,90,2.0,7.4,21,-99.99,,---,-99.99,0.00,VWS V14.01,2013-01-20 17:33:00,
2013-01-20 11:40:00,26.6,-8.1,30.27,NE,45,4.9,7.8,21,-99.99,,---,-99.99,0.00,VWS V14.01,2013-01-20 17:40:00,
2013-01-20 11:46:00,27.0,-7.8,30.27,East,90,4.9,7.8,21,-99.99,,---,-99.99,0.00,VWS V14.01,2013-01-20 17:46:00,
2013-01-20 11:52:00,27.3,-7.4,30.24,ENE,68,5.8,7.8,21,-99.99,,---,-99.99,0.00,VWS V14.01,2013-01-20 17:52:00,
2013-01-20 11:58:00,27.9,-7.0,30.24,ESE,112,3.1,7.8,21,-99.99,,---,-99.99,0.00,VWS V14.01,2013-01-20 17:58:00,
2013-01-20 12:04:00,28.6,-7.4,30.24,ENE,68,6.3,6.3,20,-99.99,,---,-99.99,0.00,VWS V14.01,2013-01-20 18:04:00,
2013-01-20 12:09:00,28.6,-7.4,30.27,East,90,4.3,6.5,20,-99.99,,---,-99.99,0.00,VWS V14.01,2013-01-20 18:09:00,
2013-01-20 12:15:00,28.2,-6.7,30.27,ESE,112,2.7,2.7,21,-99.99,,---,-99.99,0.00,VWS V14.01,2013-01-20 18:15:00,
2013-01-20 12:20:00,28.4,-6.5,30.27,NNE,22,3.6,3.6,21,-99.99,,---,-99.99,0.00,VWS V14.01,2013-01-20 18:20:00,
2013-01-20 12:25:00,28.4,-6.5,30.27,NNE,22,4.3,4.3,21,-99.99,,---,-99.99,0.00,VWS V14.01,2013-01-20 18:25:00,
2013-01-20 12:31:00,27.5,-7.3,30.27,NNE,22,5.8,5.8,21,-99.99,,---,-99.99,0.00,VWS V14.01,2013-01-20 18:31:00,
2013-01-20 12:36:00,27.9,-7.0,30.27,North,0,5.6,6.0,21,-99.99,,---,-99.99,0.00,VWS V14.01,2013-01-20 18:36:00,
2013-01-20 12:41:00,27.9,-7.0,30.27,NNE,22,6.5,6.5,21,-99.99,,---,-99.99,0.00,VWS V14.01,2013-01-20 18:41:00,
2013-01-20 12:46:00,28.2,-6.7,30.27,NE,45,5.8,5.8,21,-99.99,,---,-99.99,0.00,VWS V14.01,2013-01-20 18:46:00,
2013-01-20 12:52:00,28.0,-6.8,30.27,NNE,22,5.4,6.0,21,-99.99,,---,-99.99,0.00,VWS V14.01,2013-01-20 18:52:00,
2013-01-20 12:58:00,28.4,-6.5,30.27,North,0,4.3,4.9,21,-99.99,,---,-99.99,0.00,VWS V14.01,2013-01-20 18:58:00,
2013-01-20 13:04:00,28.9,-7.1,30.27,NNE,22,4.3,6.3,20,-99.99,,---,-99.99,0.00,VWS V14.01,2013-01-20 19:04:00,
2013-01-20 13:09:00,28.4,-6.5,30.27,NNE,22,3.6,3.6,21,-99.99,,---,-99.99,0.00,VWS V14.01,2013-01-20 19:09:00,
2013-01-20 13:14:00,28.9,-7.1,30.27,North,0,3.8,5.4,20,-99.99,,---,-99.99,0.00,VWS V14.01,2013-01-20 19:14:00,
2013-01-20 13:20:00,29.1,-6.9,30.27,NNE,22,4.0,4.3,20,-99.99,,---,-99.99,0.00,VWS V14.01,2013-01-20 19:20:00,
2013-01-20 13:25:00,29.1,-6.9,30.27,NNE,22,3.4,6.3,20,-99.99,,---,-99.99,0.00,VWS V14.01,2013-01-20 19:25:00,
2013-01-20 13:30:00,28.9,-7.1,30.27,NNE,22,4.3,4.3,20,-99.99,,---,-99.99,0.00,VWS V14.01,2013-01-20 19:30:00,
2013-01-20 13:36:00,28.8,-7.2,30.27,NNE,22,4.3,6.0,20,-99.99,,---,-99.99,0.00,VWS V14.01,2013-01-20 19:36:00,
2013-01-20 13:42:00,28.6,-7.4,30.27,North,0,3.8,6.3,20,-99.99,,---,-99.99,0.00,VWS V14.01,2013-01-20 19:42:00,
2013-01-20 13:48:00,28.2,-6.7,30.27,North,0,3.6,5.8,21,-99.99,,---,-99.99,0.00,VWS V14.01,2013-01-20 19:48:00,
2013-01-20 13:54:00,28.2,-6.7,30.27,NNW,338,5.8,5.8,21,-99.99,,---,-99.99,0.00,VWS V14.01,2013-01-20 19:54:00,
2013-01-20 13:59:00,27.5,-7.3,30.27,NNW,338,4.3,6.0,21,-99.99,,---,-99.99,0.00,VWS V14.01,2013-01-20 19:59:00,
2013-01-20 14:05:00,27.7,-7.2,30.24,NNE,22,5.8,5.8,21,-99.99,,---,-99.99,0.00,VWS V14.01,2013-01-20 20:05:00,
2013-01-20 14:10:00,27.7,-7.2,30.24,NNE,22,4.3,6.0,21,-99.99,,---,-99.99,0.00,VWS V14.01,2013-01-20 20:10:00,
2013-01-20 14:15:00,27.3,-7.4,30.24,NNE,22,6.5,6.5,21,-99.99,,---,-99.99,0.00,VWS V14.01,2013-01-20 20:15:00,
2013-01-20 14:21:00,27.3,-7.4,30.24,ENE,68,6.0,6.0,21,-99.99,,---,-99.99,0.00,VWS V14.01,2013-01-20 20:21:00,
2013-01-20 14:26:00,27.3,-7.4,30.24,NNW,338,5.8,5.8,21,-99.99,,---,-99.99,0.00,VWS V14.01,2013-01-20 20:26:00,
2013-01-20 14:31:00,27.5,-7.3,30.27,NNE,22,3.6,3.6,21,-99.99,,---,-99.99,0.00,VWS V14.01,2013-01-20 20:31:00,
2013-01-20 14:36:00,27.3,-7.4,30.27,NNW,338,4.9,4.9,21,-99.99,,---,-99.99,0.00,VWS V14.01,2013-01-20 20:36:00,
2013-01-20 14:42:00,27.1,-7.6,30.27,NNW,338,4.7,4.7,21,-99.99,,---,-99.99,0.00,VWS V14.01,2013-01-20 20:42:00,
2013-01-20 14:47:00,27.1,-7.6,30.27,NNE,22,4.0,4.0,21,-99.99,,---,-99.99,0.00,VWS V14.01,2013-01-20 20:47:00,
2013-01-20 14:53:00,27.1,-7.6,30.27,NNE,22,3.6,3.6,21,-99.99,,---,-99.99,0.00,VWS V14.01,2013-01-20 20:53:00,
2013-01-20 14:59:00,27.1,-7.6,30.27,North,0,3.8,3.8,21,-99.99,,---,-99.99,0.00,VWS V14.01,2013-01-20 20:59:00,
2013-01-20 15:04:00,27.0,-7.8,30.27,NE,45,3.4,6.0,21,-99.99,,---,-99.99,0.00,VWS V14.01,2013-01-20 21:04:00,
2013-01-20 15:10:00,27.3,-7.4,30.27,NNE,22,3.8,3.8,21,-99.99,,---,-99.99,0.00,VWS V14.01,2013-01-20 21:10:00,
2013-01-20 15:16:00,27.5,-7.3,30.27,NNE,22,4.0,6.0,21,-99.99,,---,-99.99,0.00,VWS V14.01,2013-01-20 21:16:00,
2013-01-20 15:21:00,27.3,-7.4,30.27,ENE,68,6.7,6.7,21,-99.99,,---,-99.99,0.00,VWS V14.01,2013-01-20 21:21:00,
2013-01-20 15:27:00,27.1,-7.6,30.27,North,0,4.0,4.0,21,-99.99,,---,-99.99,0.00,VWS V14.01,2013-01-20 21:27:00,
2013-01-20 15:33:00,27.1,-7.6,30.27,NW,315,3.6,3.6,21,-99.99,,---,-99.99,0.00,VWS V14.01,2013-01-20 21:33:00,
2013-01-20 15:38:00,27.1,-7.6,30.27,NNW,338,4.3,4.3,21,-99.99,,---,-99.99,0.00,VWS V14.01,2013-01-20 21:38:00,
2013-01-20 15:44:00,27.0,-7.8,30.27,NNE,22,3.6,3.6,21,-99.99,,---,-99.99,0.00,VWS V14.01,2013-01-20 21:44:00,
2013-01-20 15:51:00,26.8,-7.9,30.27,NNE,22,9.8,9.8,21,-99.99,,---,-99.99,0.00,VWS V14.01,2013-01-20 21:51:00,
2013-01-20 15:57:00,26.2,-8.4,30.24,NNE,22,7.8,8.5,21,-99.99,,---,-99.99,0.00,VWS V14.01,2013-01-20 21:57:00,
2013-01-20 16:03:00,25.9,-8.7,30.24,NNE,22,7.2,8.5,21,-99.99,,---,-99.99,0.00,VWS V14.01,2013-01-20 22:03:00,
2013-01-20 16:09:00,25.7,-8.8,30.27,NNE,22,5.4,5.4,21,-99.99,,---,-99.99,0.00,VWS V14.01,2013-01-20 22:09:00,
2013-01-20 16:15:00,25.3,-9.1,30.27,NNE,22,5.6,7.6,21,-99.99,,---,-99.99,0.00,VWS V14.01,2013-01-20 22:15:00,
2013-01-20 16:20:00,25.3,-9.1,30.27,NNE,22,6.9,6.9,21,-99.99,,---,-99.99,0.00,VWS V14.01,2013-01-20 22:20:00,
2013-01-20 16:26:00,25.2,-9.3,30.27,NNW,338,2.7,2.7,21,-99.99,,---,-99.99,0.00,VWS V14.01,2013-01-20 22:26:00,
2013-01-20 16:32:00,24.8,-8.6,30.27,NNW,338,5.8,5.8,22,-99.99,,---,-99.99,0.00,VWS V14.01,2013-01-20 22:32:00,
2013-01-20 16:37:00,24.8,-8.6,30.27,North,0,3.1,4.7,22,-99.99,,---,-99.99,0.00,VWS V14.01,2013-01-20 22:37:00,
2013-01-20 16:42:00,24.6,-8.8,30.27,NNE,22,5.8,5.8,22,-99.99,,---,-99.99,0.00,VWS V14.01,2013-01-20 22:42:00,
2013-01-20 16:47:00,24.6,-8.8,30.27,ENE,68,6.0,17.9,22,-99.99,,---,-99.99,0.00,VWS V14.01,2013-01-20 22:47:00,
2013-01-20 16:53:00,24.4,-8.9,30.27,NNW,338,4.3,4.3,22,-99.99,,---,-99.99,0.00,VWS V14.01,2013-01-20 22:53:00,
2013-01-20 16:58:00,24.4,-8.9,30.27,NNE,22,3.8,4.3,22,-99.99,,---,-99.99,0.00,VWS V14.01,2013-01-20 22:58:00,
2013-01-20 17:04:00,24.3,-9.1,30.24,NNE,22,4.3,7.4,22,-99.99,,---,-99.99,0.00,VWS V14.01,2013-01-20 23:04:00,
2013-01-20 17:09:00,24.3,-9.1,30.24,North,0,2.0,4.0,22,-99.99,,---,-99.99,0.00,VWS V14.01,2013-01-20 23:09:00,
2013-01-20 17:15:00,23.7,-9.6,30.24,North,0,3.6,4.3,22,-99.99,,---,-99.99,0.00,VWS V14.01,2013-01-20 23:15:00,
2013-01-20 17:21:00,23.7,-9.6,30.24,North,0,5.8,5.8,22,-99.99,,---,-99.99,0.00,VWS V14.01,2013-01-20 23:21:00,
2013-01-20 17:27:00,23.7,-9.6,30.24,NNE,22,3.8,5.8,22,-99.99,,---,-99.99,0.00,VWS V14.01,2013-01-20 23:27:00,
2013-01-20 17:33:00,23.4,-9.9,30.24,North,0,7.2,17.9,22,-99.99,,---,-99.99,0.00,VWS V14.01,2013-01-20 23:33:00,
2013-01-20 17:38:00,23.4,-9.9,30.24,NW,315,6.0,6.0,22,-99.99,,---,-99.99,0.00,VWS V14.01,2013-01-20 23:38:00,
2013-01-20 17:44:00,23.2,-10.0,30.24,NNE,22,7.8,7.8,22,-99.99,,---,-99.99,0.00,VWS V14.01,2013-01-20 23:44:00,
2013-01-20 17:50:00,23.0,-10.2,30.24,NNE,22,6.5,6.5,22,-99.99,,---,-99.99,0.00,VWS V14.01,2013-01-20 23:50:00,
2013-01-20 17:56:00,22.8,-10.3,30.27,North,0,4.9,5.6,22,-99.99,,---,-99.99,0.00,VWS V14.01,2013-01-20 23:56:00,
2013-01-20 18:02:00,22.6,-10.5,30.27,NNE,22,5.4,5.4,22,-99.99,,---,-99.99,0.00,VWS V14.01,2013-01-21 00:02:00,
2013-01-20 18:08:00,22.5,-10.6,30.27,NNW,338,3.6,6.3,22,-99.99,,---,-99.99,0.00,VWS V14.01,2013-01-21 00:08:00,
2013-01-20 18:13:00,22.5,-10.6,30.24,NNE,22,5.4,5.4,22,-99.99,,---,-99.99,0.00,VWS V14.01,2013-01-21 00:13:00,
2013-01-20 18:19:00,22.5,-10.6,30.24,NW,315,4.9,4.9,22,-99.99,,---,-99.99,0.00,VWS V14.01,2013-01-21 00:19:00,
2013-01-20 18:24:00,22.1,-10.9,30.24,NNW,338,5.8,5.8,22,-99.99,,---,-99.99,0.00,VWS V14.01,2013-01-21 00:24:00,
2013-01-20 18:29:00,22.1,-10.9,30.27,North,0,5.8,7.8,22,-99.99,,---,-99.99,0.00,VWS V14.01,2013-01-21 00:29:00,
2013-01-20 18:35:00,21.9,-11.1,30.27,NNE,22,3.1,6.0,22,-99.99,,---,-99.99,0.00,VWS V14.01,2013-01-21 00:35:00,
2013-01-20 18:40:00,21.7,-11.2,30.27,North,0,5.6,7.4,22,-99.99,,---,-99.99,0.00,VWS V14.01,2013-01-21 00:40:00,
2013-01-20 18:46:00,21.7,-11.2,30.24,NNW,338,4.3,4.3,22,-99.99,,---,-99.99,0.00,VWS V14.01,2013-01-21 00:46:00,
2013-01-20 18:52:00,21.6,-11.4,30.27,North,0,7.4,7.4,22,-99.99,,---,-99.99,0.00,VWS V14.01,2013-01-21 00:52:00,
2013-01-20 18:58:00,21.6,-11.4,30.27,NNW,338,5.8,6.7,22,-99.99,,---,-99.99,0.00,VWS V14.01,2013-01-21 00:58:00,
2013-01-20 19:04:00,21.4,-11.5,30.27,WNW,292,5.8,5.8,22,-99.99,,---,-99.99,0.00,VWS V14.01,2013-01-21 01:04:00,
2013-01-20 19:10:00,21.2,-11.7,30.27,NE,45,5.6,6.0,22,-99.99,,---,-99.99,0.00,VWS V14.01,2013-01-21 01:10:00,
2013-01-20 19:15:00,21.2,-11.7,30.27,North,0,7.8,7.8,22,-99.99,,---,-99.99,0.00,VWS V14.01,2013-01-21 01:15:00,
2013-01-20 19:20:00,21.2,-11.7,30.27,NNE,22,6.0,6.0,22,-99.99,,---,-99.99,0.00,VWS V14.01,2013-01-21 01:20:00,
2013-01-20 19:25:00,21.2,-11.7,30.27,NNW,338,5.8,5.8,22,-99.99,,---,-99.99,0.00,VWS V14.01,2013-01-21 01:25:00,
2013-01-20 19:31:00,21.2,-11.7,30.27,NNE,22,3.4,3.4,22,-99.99,,---,-99.99,0.00,VWS V14.01,2013-01-21 01:31:00,
2013-01-20 19:37:00,21.0,-11.9,30.27,NNE,22,2.0,3.4,22,-99.99,,---,-99.99,0.00,VWS V14.01,2013-01-21 01:37:00,
2013-01-20 19:42:00,20.8,-12.0,30.27,NNW,338,4.3,4.9,22,-99.99,,---,-99.99,0.00,VWS V14.01,2013-01-21 01:42:00,
2013-01-20 19:47:00,20.5,-12.3,30.27,NNW,338,3.8,3.8,22,-99.99,,---,-99.99,0.00,VWS V14.01,2013-01-21 01:47:00,
2013-01-20 19:53:00,20.5,-12.3,30.27,North,0,5.8,21.0,22,-99.99,,---,-99.99,0.00,VWS V14.01,2013-01-21 01:53:00,
2013-01-20 19:59:00,20.1,-12.6,30.27,North,0,4.0,4.0,22,-99.99,,---,-99.99,0.00,VWS V14.01,2013-01-21 01:59:00,
2013-01-20 20:05:00,19.9,-12.8,30.27,North,0,4.0,4.3,22,-99.99,,---,-99.99,0.00,VWS V14.01,2013-01-21 02:05:00,
2013-01-20 20:11:00,19.9,-12.8,30.27,North,0,3.1,4.0,22,-99.99,,---,-99.99,0.00,VWS V14.01,2013-01-21 02:11:00,
2013-01-20 20:17:00,19.9,-12.8,30.27,NNW,338,2.7,2.7,22,-99.99,,---,-99.99,0.00,VWS V14.01,2013-01-21 02:17:00,
2013-01-20 20:23:00,19.9,-12.8,30.30,NNW,338,2.7,2.7,22,-99.99,,---,-99.99,0.00,VWS V14.01,2013-01-21 02:23:00,
2013-01-20 20:29:00,18.5,-13.1,30.30,NNW,338,1.6,1.6,23,-99.99,,---,-99.99,0.00,VWS V14.01,2013-01-21 02:29:00,
2013-01-20 20:36:00,18.3,-13.3,30.30,NNW,338,3.1,3.1,23,-99.99,,---,-99.99,0.00,VWS V14.01,2013-01-21 02:36:00,
2013-01-20 20:41:00,17.8,-13.7,30.30,North,0,2.7,2.7,23,-99.99,,---,-99.99,0.00,VWS V14.01,2013-01-21 02:41:00,
2013-01-20 20:46:00,17.8,-13.7,30.27,North,0,3.4,3.6,23,-99.99,,---,-99.99,0.00,VWS V14.01,2013-01-21 02:46:00,
2013-01-20 20:52:00,17.6,-13.9,30.27,NNW,338,2.9,3.4,23,-99.99,,---,-99.99,0.00,VWS V14.01,2013-01-21 02:52:00,